GFSFLT1_925_rhum_246.txt.gz
RH
11 12 12 20 38 55 67 73 83 89 84 80 74 64 70 84 87 87 90 91 83 74 65 60 45 40 49 56 58 54 50 45
9 11 13 18 36 52 69 71 76 82 81 75 72 86 89 91 90 87 85 77 64 54 50 48 44 51 62 57 51 41 37 35
12 12 16 20 36 50 64 68 75 80 81 78 88 90 87 85 83 79 68 57 49 41 42 46 50 56 56 52 44 38 32 31
12 15 15 31 31 44 60 64 73 80 75 89 85 82 77 76 75 64 53 51 46 45 48 50 41 40 49 42 40 38 38 35
12 13 20 34 36 39 53 61 76 81 80 87 79 74 71 65 61 56 50 50 51 51 50 47 40 38 39 36 42 42 39 40
12 12 14 33 41 44 50 59 84 88 82 83 77 74 63 59 58 50 50 52 51 50 48 47 40 38 42 44 45 47 46 46
13 12 11 32 45 47 54 68 91 94 83 84 79 75 61 57 51 50 52 52 50 47 46 44 40 42 44 46 48 50 51 52
16 14 14 23 49 51 74 78 89 90 88 87 79 73 58 50 51 53 55 52 47 44 43 44 46 48 51 52 53 55 54 54
18 15 19 22 48 55 78 80 89 90 91 83 77 68 53 48 50 51 52 48 46 45 44 47 46 49 51 54 57 56 55 56
15 17 27 25 47 60 78 84 93 97 91 81 76 58 49 47 45 45 41 42 51 48 45 43 46 52 56 58 58 56 55 57
18 16 27 26 48 77 86 86 89 89 83 72 61 49 42 41 42 39 39 44 46 45 47 49 52 55 56 58 58 58 58 60
21 22 30 35 75 80 81 82 81 80 72 63 52 39 38 42 41 42 41 36 43 50 51 52 53 56 57 60 61 59 57 62
23 30 36 58 75 76 78 78 75 73 65 51 45 41 45 45 46 47 47 48 48 48 50 52 53 56 61 64 66 66 67 66
24 34 36 50 62 70 72 70 64 61 53 49 48 49 48 46 48 52 51 50 49 50 51 55 58 62 65 67 65 66 70 71
27 36 38 46 56 60 61 64 57 52 51 52 52 51 46 50 51 54 52 51 51 50 58 61 64 65 64 66 67 73 72 73
27 36 39 46 54 55 55 53 51 49 51 50 49 47 49 50 55 53 50 50 51 57 63 64 66 66 67 71 67 73 77 75
28 34 37 47 50 51 51 49 48 45 47 48 48 53 54 56 54 56 54 54 57 59 62 67 68 66 63 66 72 68 77 82
30 34 36 45 47 48 48 44 44 43 45 46 51 57 61 61 59 59 62 62 63 63 67 67 69 71 76 79 76 59 82 80
30 33 35 41 44 47 47 42 41 39 42 46 54 60 63 62 62 67 64 66 69 68 70 71 80 84 82 62 57 76 77 76

GFSFLT1_925_rhum_249.txt.gz
RH
13 11 15 44 58 64 71 74 74 77 85 88 86 75 69 73 75 74 76 76 73 78 78 76 62 54 48 48 48 48 45 40
13 12 11 45 65 72 78 86 81 83 93 90 84 78 78 80 76 78 76 73 79 77 74 59 49 47 51 52 48 41 35 31
14 12 14 47 63 71 78 86 84 85 92 89 82 86 84 82 85 84 80 84 75 62 60 43 48 51 54 49 33 33 35 34
16 16 20 50 62 73 79 83 83 86 87 88 83 83 88 92 90 86 83 72 56 46 46 46 57 54 49 40 37 36 36 36
17 17 22 51 59 71 76 78 85 86 84 86 85 90 92 90 86 79 67 55 45 44 46 48 41 48 38 37 39 37 39 43
15 18 19 32 56 69 74 77 85 87 84 82 86 91 88 85 82 68 54 50 48 48 49 41 38 39 37 40 44 44 44 48
12 10 14 36 50 65 71 80 87 89 85 83 83 86 80 76 69 55 52 51 52 49 46 42 38 39 40 42 46 48 51 51
14 16 22 38 48 67 71 81 90 94 90 88 84 80 73 68 62 58 54 53 51 48 46 43 41 42 46 48 50 52 51 52
18 20 21 42 54 66 78 84 95 98 93 91 83 76 68 66 60 58 57 53 50 47 45 42 45 49 50 51 50 54 57 58
19 23 28 42 55 60 76 94 98 99 96 89 86 82 68 62 59 56 54 51 47 44 44 46 48 48 48 53 57 55 56 60
22 23 36 48 57 61 82 92 97 99 96 93 90 86 73 60 55 54 53 50 45 44 47 45 46 50 55 55 57 57 59 60
27 24 36 55 59 79 91 97 100 100 99 94 90 82 69 60 52 53 52 49 47 45 44 46 51 53 55 56 58 60 61 64
26 41 79 72 89 96 98 100 100 97 92 88 83 72 61 59 56 52 49 51 48 45 47 50 52 54 57 60 63 64 64 68
37 78 87 89 91 93 94 94 92 90 85 78 76 66 64 58 51 47 48 46 46 49 50 52 53 56 63 65 66 66 69 71
45 71 84 87 86 87 88 84 84 79 76 71 70 68 63 59 53 44 43 48 49 50 51 53 57 64 65 65 66 69 68 69
36 55 74 83 82 83 80 76 76 74 68 64 62 61 60 59 61 54 52 50 51 50 54 60 64 64 64 64 62 55 60 69
32 47 60 72 74 75 76 71 68 64 60 59 60 60 64 64 61 57 59 55 49 56 62 65 66 66 69 70 59 59 58 70
34 41 51 64 67 67 70 65 61 58 58 59 60 65 68 67 68 66 61 55 60 63 66 67 66 71 78 65 68 49 64 76
28 34 43 53 61 62 62 58 56 57 56 57 63 66 69 70 67 63 59 62 66 70 70 71 77 88 77 71 48 61 76 78

GFSFLT1_925_rhum_255.txt.gz
RH
50 52 54 58 68 76 82 85 84 77 86 88 86 85 78 75 70 69 70 74 81 84 85 79 78 78 81 81 73 53 50 45
43 48 51 54 62 72 81 90 88 93 96 100 100 99 95 94 84 76 73 76 82 84 83 77 76 78 79 69 53 50 43 36
18 37 45 49 54 67 76 85 90 94 93 95 98 98 100 99 88 79 76 78 82 84 80 77 77 82 76 60 51 46 39 33
18 23 36 40 46 59 70 78 83 89 94 98 96 97 98 99 90 82 83 81 78 82 80 75 80 81 74 58 50 46 35 36
18 17 26 28 36 44 59 72 80 91 96 97 95 90 90 93 93 96 87 80 77 83 79 77 79 75 65 53 49 42 28 32
17 18 16 22 33 43 56 69 79 89 98 92 98 91 87 90 93 98 94 84 82 85 82 80 77 66 53 50 42 27 23 24
16 14 12 17 23 42 58 72 82 88 98 95 97 92 90 92 96 100 100 91 90 89 85 82 72 59 52 47 36 27 24 24
18 17 18 14 26 43 60 73 85 91 97 97 96 94 92 97 98 99 100 96 93 91 86 70 62 54 51 44 33 31 29 31
20 18 20 18 18 40 68 76 81 94 98 98 94 94 92 97 99 99 99 92 87 78 74 62 62 55 48 39 34 37 40 44
22 28 26 24 23 25 46 71 78 89 96 98 96 96 92 98 100 95 96 92 83 73 62 58 58 52 42 39 40 43 47 49
28 27 28 27 25 24 26 54 71 83 95 97 96 97 95 98 91 95 90 87 83 70 60 57 52 45 42 43 47 49 55 62
33 29 26 26 30 34 31 42 75 83 95 96 94 96 99 95 92 91 88 84 80 72 61 55 48 48 50 51 51 55 58 63
37 32 30 34 34 43 48 52 76 83 93 94 92 98 100 93 93 90 88 85 82 72 63 54 50 55 55 52 55 59 60 66
31 33 32 29 39 61 72 76 89 90 95 95 96 100 100 97 94 92 90 88 83 76 72 75 80 76 67 60 57 64 65 67
34 34 34 30 34 92 95 96 95 95 95 98 98 100 99 98 94 92 92 87 81 76 77 78 78 86 66 67 69 73 79 80
32 30 28 35 82 89 96 91 91 89 97 99 95 100 97 97 94 92 93 87 83 82 84 94 86 87 82 75 69 78 82 80
49 48 46 36 53 80 96 98 98 99 100 100 100 100 98 93 92 92 91 86 86 89 97 85 90 82 75 80 88 87 84 88
48 51 49 45 41 51 92 96 99 99 100 99 99 98 96 93 93 90 89 95 96 98 99 92 87 84 88 89 84 83 90 91
56 54 52 48 45 43 63 88 98 100 97 98 94 95 94 93 94 92 95 98 99 100 99 84 88 98 91 88 89 92 94 90

GFSFLT1_925_rhum_261.txt.gz
RH
27 42 51 58 64 72 71 65 64 68 76 88 89 90 89 84 82 77 60 54 57 63 82 76 67 88 96 97 95 93 79 63
15 27 42 56 63 77 75 77 72 76 84 84 85 84 85 86 84 72 58 55 61 64 82 87 82 91 94 98 96 92 76 62
16 19 16 28 51 66 75 77 79 80 78 78 75 79 81 82 84 82 78 75 71 70 76 85 88 88 99 98 90 82 68 58
17 18 20 17 23 52 73 76 78 84 82 81 83 83 90 87 90 90 87 83 74 70 77 83 86 90 97 91 89 87 66 61
20 21 20 21 21 20 47 71 77 84 89 83 84 81 79 83 84 88 90 96 87 85 82 85 88 92 95 92 87 87 74 61
26 25 23 24 26 24 22 37 72 81 91 88 86 87 78 78 83 84 93 95 98 95 93 94 94 94 94 95 89 87 77 69
28 28 29 29 30 26 26 25 31 67 87 96 90 88 87 81 83 86 89 96 100 99 97 97 97 98 96 96 90 88 82 72
28 27 31 34 36 36 33 30 29 35 77 90 97 92 91 89 84 85 86 93 97 100 100 100 100 99 98 95 92 92 86 74
26 26 32 32 33 36 39 38 38 31 42 69 80 90 93 92 90 86 87 86 92 98 100 100 100 100 100 96 99 96 92 81
23 26 31 36 31 35 38 40 39 37 38 46 59 74 88 91 91 91 89 90 89 97 100 100 100 100 100 91 95 95 96 87
22 26 29 33 34 37 40 42 43 45 49 56 61 65 77 86 92 91 91 93 95 100 100 96 100 100 99 100 98 97 94 81
24 28 29 30 40 41 44 46 50 55 63 79 90 86 71 85 92 92 90 98 99 100 98 99 100 100 100 100 100 96 77 72
26 30 32 31 40 41 44 48 47 50 60 75 94 97 82 90 94 92 91 100 100 100 98 100 100 100 100 100 97 81 70 73
27 32 32 32 39 42 46 49 49 49 52 67 84 92 95 95 92 91 97 100 100 100 100 100 100 100 100 99 90 77 70 67
29 30 31 38 39 44 44 48 52 50 50 61 77 90 96 98 99 100 99 99 99 100 100 100 100 100 98 92 87 73 72 72
27 27 29 35 38 42 42 45 50 54 52 56 72 88 99 99 100 100 100 100 100 100 100 100 99 96 94 90 81 76 77 85
26 26 32 35 37 40 43 46 50 57 56 54 70 91 99 99 100 100 100 100 100 100 100 100 99 96 93 85 77 88 90 97
26 27 36 38 34 41 44 47 52 56 58 51 62 76 97 99 100 100 100 100 100 100 100 100 100 100 93 81 81 92 93 98
27 41 36 34 32 43 45 48 50 56 58 52 52 69 86 100 100 100 100 100 100 100 100 100 100 99 92 86 87 91 99 93

GFSFLT1_925_rhum_264.txt.gz
RH
6 8 14 25 33 43 49 56 62 67 72 75 69 69 68 65 61 60 62 70 78 76 65 65 70 67 67 73 72 73 72 67
10 15 17 19 25 39 47 55 62 67 69 69 68 65 65 66 66 64 66 68 74 76 67 64 72 68 66 73 78 80 79 72
13 17 19 21 23 26 36 55 58 64 64 64 63 61 60 61 63 66 70 70 73 74 73 63 64 68 70 71 85 84 79 72
18 19 21 22 26 29 28 34 53 61 64 63 65 67 66 64 65 68 71 76 76 78 73 73 66 70 68 76 88 83 75 74
21 22 24 24 29 32 32 33 39 54 64 67 65 64 64 64 68 64 69 76 80 78 80 76 76 73 76 73 86 86 77 72
21 22 24 24 30 33 37 36 32 39 60 69 68 67 66 68 65 68 69 74 80 80 81 83 78 79 76 78 84 90 85 80
16 16 20 22 26 32 38 35 34 35 41 57 70 72 67 67 67 68 70 72 78 84 83 84 83 82 80 82 86 95 94 92
15 15 18 22 25 29 33 37 36 37 39 43 54 65 71 69 70 73 71 73 75 82 91 88 89 86 85 86 94 100 96 94
15 14 18 24 27 29 34 35 37 40 42 47 50 51 55 67 74 74 77 76 75 79 92 96 93 90 92 92 100 100 100 95
14 14 16 20 25 29 35 38 34 38 44 50 55 61 63 66 67 77 80 83 80 80 88 100 99 95 98 99 100 100 98 100
13 13 16 21 24 27 33 36 35 35 37 42 47 55 66 75 82 78 81 84 87 85 86 99 100 100 100 100 100 100 100 100
15 15 18 21 23 26 28 33 37 35 38 38 44 53 60 69 75 83 77 84 88 88 88 99 100 100 100 100 100 100 100 100
16 16 20 21 21 27 26 31 32 33 35 39 43 48 55 64 75 80 81 85 88 90 98 99 100 98 100 100 100 100 100 100
17 18 19 20 20 27 30 30 30 30 32 36 38 44 52 60 72 81 87 88 85 99 100 100 100 100 100 100 100 100 99 98
18 18 18 18 18 26 28 28 30 31 31 34 35 41 50 62 75 80 90 98 98 100 100 100 100 100 100 100 100 99 96 94
18 18 18 18 19 25 27 26 28 31 33 34 36 38 42 51 73 93 92 95 100 100 100 100 100 100 100 100 100 98 95 95
18 18 19 22 26 28 27 24 25 30 34 35 34 36 36 44 57 89 100 98 100 100 100 100 100 100 100 100 99 99 97 94
19 20 22 29 27 24 24 23 24 30 33 34 33 33 33 39 49 74 100 99 100 99 100 100 100 100 100 100 100 99 96 96
23 22 22 24 25 24 24 24 25 31 32 32 33 32 34 40 48 66 96 100 99 100 99 100 100 100 100 100 100 100 99 99